ANGOSAT 2

Last updated on Wed Sep 17 2025 00:02:51 GMT+0000 (Coordinated Universal Time)

1 54033U 22131A 25259.58823870 .00000116 00000+0 00000+0 0 9994 2 54033 0.0090 158.9532 0001655 121.2528 310.3306 1.00271496 10723
UTC large
Height (km)
Speed (km/s)
/
Latitude / Longitude
Inclination (degrees)
Orbital Period (minutes)
Azimuth
Elevation
Range (km)
Doppler Factor

Next 0 passes for location: London (51.5072 / 0.1276)

Sorry there are no passes over London.